Lapse_Rate
5.3 5.3 5.3 5.2 5.3 5.4 5.7 5.9 5.5 5.4 5.3 5.3 5.3 5.4 5.3 5.1 5.0 4.9 4.9 5.0 5.2 5.5
5.2 5.3 5.3 5.4 5.3 5.3 5.4 5.6 5.6 5.3 5.3 5.2 5.6 5.5 5.3 5.1 5.2 5.0 5.1 5.2 5.1 5.5
5.1 5.3 5.3 5.3 5.1 5.2 5.2 5.2 5.2 5.4 5.2 5.6 5.5 5.6 5.4 5.0 5.1 5.0 5.1 5.2 5.1 5.2
5.3 5.3 5.4 5.2 4.9 5.0 5.0 5.2 5.2 5.3 5.6 5.4 5.4 5.6 5.0 4.7 5.0 5.0 5.2 5.1 5.2 5.4
5.2 5.3 5.3 5.4 5.0 5.2 5.1 5.1 5.3 5.6 5.6 5.5 5.4 5.4 4.9 4.9 5.1 5.0 5.2 5.1 5.2 5.4
5.3 5.3 5.5 5.7 5.5 5.2 5.0 5.0 5.3 5.3 5.4 5.4 5.1 4.9 5.0 5.2 5.2 5.2 5.2 5.4 5.6 5.6
5.6 5.5 5.6 5.6 5.7 5.5 5.7 5.1 5.2 5.1 5.2 5.0 4.8 5.0 5.1 5.3 5.3 5.4 5.4 5.4 5.5 5.4
5.7 5.8 5.8 6.3 5.5 5.5 5.2 5.2 5.0 5.1 5.1 5.1 4.9 5.0 5.2 5.4 5.3 5.4 5.3 5.4 5.3 5.4
6.3 6.4 6.3 5.5 5.4 5.6 5.2 5.2 5.2 5.2 5.2 5.0 5.1 5.2 5.4 5.7 5.4 5.3 5.4 5.2 5.3 5.4
6.3 5.9 5.6 5.6 5.6 5.2 5.2 5.2 5.0 5.3 5.0 5.1 5.2 5.5 5.6 5.5 5.4 5.4 5.4 5.3 5.2 5.3
6.1 5.9 5.8 5.8 5.6 5.2 4.9 5.2 5.3 5.0 5.1 5.3 5.4 5.5 5.7 5.5 5.4 5.3 5.2 5.2 5.3 5.5
6.1 5.6 5.6 5.7 5.1 5.0 5.3 5.4 5.2 5.1 5.3 5.5 5.6 5.7 5.5 5.3 5.2 5.3 5.5 5.7 5.7 5.6
6.1 5.8 5.6 5.5 5.1 5.3 5.6 5.6 5.5 5.4 5.5 5.7 5.8 5.6 5.4 5.4 5.4 5.5 5.8 5.7 5.6 5.3
5.8 5.7 5.7 5.4 5.5 5.8 5.8 5.9 5.9 5.8 5.8 5.9 5.7 5.6 5.7 5.6 5.6 5.8 5.8 5.7 5.6 5.5
Wind_Speed
8 4 5 6 4 4 4 3 2 5 6 5 4 3 3 2 3 4 4 6 5 2
6 7 6 6 3 3 3 3 4 4 4 3 4 4 5 4 6 6 5 5 5 4
7 6 6 6 5 2 2 3 5 3 5 5 6 6 6 5 5 6 4 3 6 6
6 6 6 5 4 3 2 5 5 6 6 6 6 5 6 7 6 7 6 6 7 7
7 7 7 6 5 3 3 2 6 6 5 6 6 6 7 7 6 7 7 6 7 7
7 7 6 6 6 6 7 5 5 7 7 6 6 7 6 7 7 7 7 7 7 6
7 7 6 5 5 6 7 7 7 6 7 6 6 6 6 8 7 7 7 7 7 7
7 7 7 7 7 7 8 7 6 6 5 7 6 4 6 8 7 8 7 7 6 6
10 7 8 9 9 9 8 7 6 5 6 7 4 9 9 11 7 7 7 6 5 6
8 10 10 8 9 8 8 6 6 7 8 7 5 9 11 13 6 7 6 6 5 4
11 11 11 10 10 9 6 6 6 7 7 7 4 8 11 11 7 6 6 6 8 6
12 12 11 11 11 9 7 5 6 7 7 8 5 7 8 9 7 7 7 6 6 7
13 13 12 12 11 10 7 6 7 6 7 9 7 7 8 7 4 6 5 5 6 9
12 12 12 11 7 9 7 7 7 7 6 7 7 7 8 9 4 4 5 5 4 3
Wind_Direction
188 185 192 199 209 211 186 171 174 176 208 212 216 183 126 81 61 44 62 59 24 10
172 179 187 196 193 160 154 154 162 177 150 110 84 101 97 88 62 69 62 54 35 37
169 175 175 150 168 162 227 231 184 156 123 107 81 79 105 79 75 82 57 46 48 34
166 156 146 135 149 205 270 240 139 121 109 115 104 98 102 95 87 77 73 54 56 43
166 144 147 162 172 115 54 288 127 115 106 89 92 94 102 92 89 89 78 66 59 42
134 154 165 162 156 134 178 160 110 107 106 112 111 100 102 104 89 76 74 72 70 56
157 167 174 178 171 147 130 122 113 124 135 129 121 112 113 104 101 91 86 85 81 70
176 172 185 179 137 118 117 124 137 138 148 139 129 132 121 114 114 107 100 91 89 87
171 158 145 135 120 125 130 139 143 158 128 108 118 110 126 116 123 130 126 127 122 97
163 146 142 134 129 134 148 149 150 117 117 124 129 112 125 134 143 149 147 157 142 106
156 146 142 141 145 150 149 157 150 137 138 134 143 122 127 128 130 114 118 117 123 120
152 149 149 149 154 157 155 161 140 152 143 141 165 103 94 118 121 106 104 101 108 106
151 151 154 155 163 164 157 152 145 141 148 156 169 130 111 101 126 118 108 89 96 110
152 150 152 155 163 150 149 147 145 140 157 163 172 166 139 111 104 152 149 151 153 166